Weather History for Nashua, NH

Change the Weather History Date:

Saturday, February 9, 2013

  Actual Average Record
Temperature  
Mean Temperature 17 °F -  
Max Temperature 21 °F 33 °F 57 °F (1949)
Min Temperature 13 °F 9 °F -11 °F (1950)
Degree Days  
Heating Degree Days 48    
Moisture  
Dew Point 10 °F    
Average Humidity 70    
Maximum Humidity 89    
Minimum Humidity 52    
Precipitation  
Precipitation 0.00 in - - ()
Sea Level Pressure  
Sea Level Pressure 30.23 in    
Wind  
Wind Speed 20 mph (NNW)    
Max Wind Speed 31 mph    
Max Gust Speed 44 mph    
Visibility 4 miles    
Events Fog , Snow    
Averages and records for this station are not official NWS values.
T = Trace of Precipitation, MM = Missing Value Source: NWS Daily Summary

Daily Weather History Graph

Daily Weather History Graph

Search for Another Location

Airport:

Trip Planner

Search our weather history database for the weather conditions in past years. The results will help you decide how hot, cold, wet, or windy it might be!

Date:

Astronomy

Feb. 09, 2013 Rise Set
Actual Time 6:50 AM EST 5:10 PM EST
Civil Twilight 6:21 AM EST 5:39 PM EST
Nautical Twilight 5:48 AM EST 6:12 PM EST
Astronomical Twilight 5:15 AM EST 6:45 PM EST
Moon 6:00 AM EST (2/9) 4:50 PM EST (2/9)
Length of Visible Light 11h 17m
Length of Day
10h 19m
Waning Crescent, 0% of the Moon is Illuminated
Feb 9
Waning Crescent
Feb 10
New
Feb 17
First Quarter
Feb 25
Full
Mar 4
Last Quarter

Hourly Weather History & Observations

Time (EST) Temp. Windchill Dew Point Humidity Pressure Visibility Wind Dir Wind Speed Gust Speed Precip Events Conditions
12:08 AM 17.6 °F 2.2 °F 12.2 °F 79% 29.72 in 1.0 mi North 17.3 mph 29.9 mph 0.00 in Snow Light Snow
12:18 AM 17.6 °F 2.2 °F 12.2 °F 79% 29.72 in 0.8 mi North 17.3 mph 33.4 mph 0.00 in Snow Light Snow
12:21 AM 17.6 °F 2.2 °F 12.2 °F 79% 29.71 in 0.5 mi North 17.3 mph 33.4 mph 0.00 in Snow Snow
12:28 AM 17.6 °F 1.7 °F 12.2 °F 79% 29.70 in 0.5 mi North 18.4 mph 27.6 mph 0.00 in Snow Snow
12:37 AM 15.8 °F 0.9 °F 12.2 °F 86% 29.70 in - North 15.0 mph 21.9 mph 0.00 in Snow Snow
12:51 AM 16.2 °F -0.2 °F 12.0 °F 84% 30.45 in - North 18.4 mph 27.6 mph 0.00 in Snow Snow
1:51 AM 16.2 °F -0.6 °F 12.0 °F 84% 30.47 in - North 19.6 mph 29.9 mph 0.00 in Snow Snow
2:13 AM 15.8 °F -0.6 °F 12.2 °F 86% 29.70 in - North 18.4 mph 25.3 mph 0.00 in Snow Snow
2:51 AM 16.2 °F -0.6 °F 13.1 °F 88% 30.46 in - North 19.6 mph 27.6 mph 0.00 in Snow Snow
3:32 AM 17.6 °F 0.1 °F 14.0 °F 86% 29.68 in - North 23.0 mph 33.4 mph 0.00 in Snow Snow
3:51 AM 18.1 °F 1.2 °F 14.0 °F 84% 30.45 in - North 21.9 mph 29.9 mph 0.00 in Snow Snow
4:51 AM 20.1 °F 5.9 °F 16.2 °F 85% 30.44 in - North 16.1 mph 36.8 mph 0.00 in Snow Snow
5:51 AM 19.0 °F 1.3 °F 16.2 °F 89% 30.43 in - NNW 25.3 mph 38.0 mph 0.00 in Snow Light Snow
6:51 AM 19.0 °F 3.6 °F 15.1 °F 85% 30.46 in - NNW 18.4 mph 28.8 mph 0.00 in Snow Light Snow
6:54 AM 19.4 °F 4.1 °F 15.8 °F 86% 29.70 in 0.2 mi NNW 18.4 mph 28.8 mph 0.00 in Fog , Snow Blowing Snow
7:51 AM 18.1 °F 2.0 °F 14.0 °F 84% 30.50 in 0.2 mi NNW 19.6 mph 27.6 mph 0.00 in Fog , Snow Blowing Snow
8:51 AM 16.2 °F -1.8 °F 12.0 °F 84% 30.53 in 0.2 mi NNW 23.0 mph 32.2 mph N/A Fog , Snow Blowing Snow
9:51 AM 16.2 °F -1.0 °F 11.1 °F 81% 30.56 in 0.5 mi NNW 20.7 mph 28.8 mph N/A Fog , Snow Blowing Snow
10:51 AM 17.1 °F -1.0 °F 10.0 °F 74% 30.59 in 0.5 mi NNW 24.2 mph 33.4 mph N/A Fog , Snow Blowing Snow
10:58 AM 17.6 °F -0.6 °F 10.4 °F 73% 29.82 in - NNW 25.3 mph 33.4 mph N/A Fog , Snow Blowing Snow
11:12 AM 17.6 °F -0.3 °F 10.4 °F 73% 29.82 in 1.2 mi NNW 24.2 mph 34.5 mph N/A Snow Blowing Snow
11:23 AM 17.6 °F -1.6 °F 10.4 °F 73% 29.83 in 1.0 mi NNW 28.8 mph 38.0 mph N/A Snow Blowing Snow
11:38 AM 17.6 °F 0.1 °F 10.4 °F 73% 29.83 in 0.8 mi NNW 23.0 mph 43.7 mph N/A Snow Blowing Snow
11:51 AM 19.0 °F 0.6 °F 10.0 °F 68% 30.61 in 1.5 mi NNW 27.6 mph 33.4 mph N/A Snow Blowing Snow
12:33 PM 19.4 °F 1.8 °F 8.6 °F 63% 29.85 in 1.0 mi NNW 25.3 mph 36.8 mph N/A Snow Blowing Snow
12:37 PM 19.4 °F 0.8 °F 8.6 °F 63% 29.85 in 1.5 mi NNW 28.8 mph 36.8 mph N/A Snow Blowing Snow
12:51 PM 19.0 °F 1.3 °F 9.1 °F 65% 30.63 in 1.2 mi NNW 25.3 mph 40.3 mph N/A Snow Blowing Snow
12:54 PM 17.6 °F 0.9 °F 8.6 °F 68% 29.86 in 2.0 mi North 20.7 mph 34.5 mph N/A Snow Blowing Snow
1:08 PM 19.4 °F 0.2 °F 8.6 °F 63% 29.87 in 1.2 mi NNW 31.1 mph 40.3 mph N/A Snow Blowing Snow
1:19 PM 19.4 °F 1.8 °F 8.6 °F 63% 29.87 in 2.5 mi NNW 25.3 mph 34.5 mph N/A Snow Blowing Snow
1:51 PM 19.0 °F 4.0 °F 8.1 °F 62% 30.67 in 2.5 mi NNW 17.3 mph 33.4 mph N/A Snow Blowing Snow
1:58 PM 19.4 °F 2.1 °F 8.6 °F 63% 29.89 in 5.0 mi NNW 24.2 mph 28.8 mph N/A Snow Blowing Snow
2:13 PM 19.4 °F 2.8 °F 8.6 °F 63% 29.90 in 2.5 mi North 21.9 mph 39.1 mph N/A Snow Blowing Snow
2:21 PM 19.4 °F 2.8 °F 8.6 °F 63% 29.90 in 4.0 mi North 21.9 mph 32.2 mph N/A Snow Blowing Snow
2:34 PM 19.4 °F 1.1 °F 10.4 °F 68% 29.92 in 1.8 mi NNW 27.6 mph 34.5 mph N/A Snow Blowing Snow
2:44 PM 19.4 °F 3.2 °F 10.4 °F 68% 29.93 in 2.5 mi NNW 20.7 mph 27.6 mph N/A Snow Blowing Snow
2:51 PM 20.1 °F 4.2 °F 11.1 °F 68% 30.71 in 4.0 mi NNW 20.7 mph 25.3 mph 0.00 in   Clear
3:13 PM 19.4 °F 2.8 °F 8.6 °F 63% 29.95 in 2.0 mi NNW 21.9 mph 33.4 mph 0.00 in   Clear
3:22 PM 19.4 °F 2.5 °F 8.6 °F 63% 29.95 in 6.0 mi NNW 23.0 mph 33.4 mph 0.00 in   Clear
3:37 PM 19.4 °F 1.8 °F 8.6 °F 63% 29.96 in 2.5 mi NNW 25.3 mph 32.2 mph 0.00 in   Clear
3:44 PM 21.2 °F 6.4 °F 8.6 °F 58% 29.96 in 4.0 mi North 18.4 mph 32.2 mph 0.00 in   Clear
3:51 PM 20.1 °F 5.4 °F 8.1 °F 60% 30.76 in 7.0 mi NNW 17.3 mph 28.8 mph 0.00 in   Clear
4:51 PM 21.0 °F 5.4 °F 7.2 °F 55% 30.78 in 3.0 mi NNW 20.7 mph 31.1 mph 0.00 in   Partly Cloudy
5:51 PM 20.1 °F 5.0 °F 5.0 °F 52% 30.83 in 10.0 mi NNW 18.4 mph 25.3 mph 0.00 in   Clear
6:51 PM 18.1 °F 2.9 °F 4.1 °F 54% 30.87 in 10.0 mi NNW 17.3 mph - N/A   Clear
7:51 PM 16.2 °F 0.3 °F 3.0 °F 56% 30.91 in 10.0 mi NNW 17.3 mph 27.6 mph N/A   Clear
8:51 PM 15.1 °F -2.0 °F 1.0 °F 54% 30.94 in 10.0 mi NNW 19.6 mph 28.8 mph N/A   Clear
9:51 PM 14.0 °F -2.0 °F 1.0 °F 56% 30.96 in 10.0 mi NNW 16.1 mph 23.0 mph N/A   Clear
10:51 PM 13.1 °F -3.1 °F -0.9 °F 54% 30.98 in 10.0 mi NNW 16.1 mph - N/A   Clear
11:51 PM 14.0 °F -2.0 °F -0.9 °F 52% 30.99 in 10.0 mi NNW 16.1 mph - N/A   Clear